Find Starlink 3908

NORAD ID: 52491 Int'l Des: 2022-049 Owner: SPXS Country: US Constellation: starlink operational
LEOCIRCULAR

Live Position

Loading 3D Globe...

About Starlink 3908

Description loading...

Upcoming Passes

Passes for default location (London). Set your location on the main map for personalized predictions.

Altitude History

Loading altitude history...

Two-Line Element Set

1 52491U 22049AS 26107.05572919 .00000173 00000-0 28926-4 0 9994
2 52491 53.2164 236.8891 0001182 83.9913 276.1214 15.08836359218187
Epoch: Apr 17, 2026 • Age: 16 hours

Current Status

Altitude 545.5 km
Velocity 7.60 km/s
Sub-Earth Point 53.03°N, 155.07°W
Launch Date May 6, 2022
Age 3.9 years
Type internet

Technical Details

Classification Payload
Mass 297.00 kg
Dry Mass 220.00 kg
Total Mass 297.00 kg
Length 0.20 m
Diameter 2.80 m
Span 9.00 m
Shape Box + pan
Manufacturer SPXS
Bus Type Starlink
Phase Status In Orbit
Owner/State SPXS/US

Most Searched